STARLINK-34490, 64478

Orbit data source: Space-Track

STARLINK-34490, 64478 is a payload satellite owned by SpaceX/Seattle (US) in LEO that was launched on Mon, 23 Jun 2025 UTC via an FALCON 9 launch vehicle from the Air Force Eastern Test Range (AFETR). Payload-class satellites include a variety of spacecraft equipped with specific instruments for various scientific and technological missions. These include communications satellites like Starlink; space stations such as the ISS; scientific satellites like the Hubble; Earth observation satellites from companies like Planet Labs, Umbra, and HawkEye 360; GPS; miniature CubeSats for education and research; and military/defense satellites.

Loading next visibility...
Identifier
64478, 2025-133G
Orbit
LEO
Country
Flag of USUS
Related business
Manufacturer
SpaceX/Seattle
Mission
Operational Commercial Communications
Bus & Motor
STARLINK V2MO, Unknown motor
Mass
575 kg wet, ~530 kg dry
Launch date (UTC)
2025-06-23 (1 year ago)
Launch vehicle
FALCON 9
Launch site
Air Force Eastern Test Range (AFETR)
Object type
Payload
Rocket body
Debris
Shape & HBR
Box + 2 Pan, 17.7 m
Radar Cross Section
36.964 m², Large (>1 m²)

Expand to show TLE details & history
Last TLE update: 1 day ago

TLE from 1 day ago
0 STARLINK-34490
1 64478U 25133G   26170.92643127  .00025504  00000-0  87006-3 0  9993
2 64478  53.1619   1.7560 0000756  48.7127 311.3939 15.30207604 56842
Epoch: 2026-06-19T22:14Z
TLE epoch observation values (Epoch: 2026-06-19T22:14:03.661Z)
Latitude
-0.00002°
Longitude
120.09233°
Altitude
475.75 km
Speed
7.629 km/s
True Right ascension
00h 07m 01s
True Declination
0° 00' 00"
Sunlit
Object was in daylight at epoch
Visualization orbit readout
Latitude
Unknown
Longitude
Unknown
Altitude
Unknown
Speed
Unknown
Apparent Right ascension
Unknown
Apparent Declination
Unknown
Sunlit
N/A
Visualization observer readout
Local Sidereal Time
10:19:51
Azimuth
Unknown
Elevation
Unknown
Doppler factor
Unknown
Orbital elements
Apogee altitude
475.967 km
Perigee altitude
474.93 km
Semi-major axis
6,853.585 km
Eccentricity
0.00008
Inclination
53.1619°
RAAN
1.756°
Arg. of periapsis
48.7127°
True anomaly
311.3874°
Mean anomaly
311.3939°
Eccentric anomaly
311.39065°
Mean motion
3.82531 °/min
Orbital period
94.11 mins
BSTAR
0.00087006
Loading maneuver chart data...
Computing Atmospheric mass density...
Loading historical data...
Loading historical data...
Loading historical data...
Loading historical data...
Loading historical data...
Loading historical data...
Loading historical data...

Documentation

Showing up to 5 results
|